Location: Munkebjergskolens Observatorium
(55.3864°N, 10.3987°E)
Time: 09:33:54
(UTC+02:00)

JY1SAT - Pass Details

Date: 04 April 2023
Orbit: 555 x 574 km, 97.6° (Epoch: 03 June)

Event Time Altitude Azimuth Distance (km) Brightness Sun altitude
Exits shadow 21:59:41 31° 140° (SE) 1,010 ? -16.0°
Maximum altitude 22:01:27 61° 71° (ENE) 647 ? -16.2°
Drops below altitude 10° 22:05:28 10° 351° (N) 1,883 ? -16.7°
Sets 22:07:39 0° 348° (NNW) 2,789 ? -16.9°
